Location: Edoum�
(0.9447°N, 10.6482°E)
Time: 23:48:48
(UTC+00:00)

Iridium 4 Rocket - Pass Details

Date: 07 June 2020
Orbit: 584 x 905 km, 86.9° (Epoch: 13 July)

Event Time Altitude Azimuth Distance (km) Brightness Sun altitude
Exits shadow 03:33:04 46° 309° (NW) 919 3.7 -23.3°
Drops below altitude 10° 03:36:54 10° 347° (NNW) 2,199 6.0 -22.4°
Sets 03:39:21 0° 351° (N) 3,172 6.9 -21.8°
